星链-32731 (STARLINK-32731)

导读

STARLINK-32731是美国太空探索技术公司(SpaceX)星链(Starlink)星座的组网卫星,于2025年1月6日发射入轨,属于Starlink项目第二代低轨互联网星座组网卫星。星链项目旨在通过全球覆盖的低轨卫星星座,为全球用户提供高速、低延迟的宽带互联网服务,该卫星是星链星座大规模组网部署过程中的组成单元。

Basic Information
目录编号:
62493
目录名称:
STARLINK-32731
国际标识:
2025-003G
轨道中心:
EARTH
卫星名称:
星链-32731
卫星全名:
星链-32731 (STARLINK-32731)
卫星状态:
在轨 (已飞行606 天)
发射日期:
2025-01-06 UTC
国别 :
美国 (US)
星等 :
--
Orbit Information
数据来源 国际轨道数据 AOE轨道数据
星历时间 2026-09-04T01:07:04+0800
18小时前
查看轨道信息
2026-08-29T10:00:00+0800
6天前
查看轨道信息
半长轴 6861.156km 6861.14km
偏心率 0.0001541 0.0000031
轨道倾角 43.003° 43.003°
近地点辐角 269.814° 250.975°
升交点赤经 3.959° 35.757°
平近点角 90.254° 72.358°
近地点 481.961km 482.981km
远地点 484.077km 483.025km
周期 94.266分钟 94.266分钟
每日圈数 15.275903 15.275957
Detailed Information
固有亮度:
5
最大亮度:
2.5
卫星平台:
Starlink V1.0
覆盖范围:
全球
运营商:
太空探索技术公司
运营商所在国:
美国
制造商(研发单位):
太空探索技术公司
制造商所在国:
美国
使用方式:
暂无
Satellite Introduction
Starlink 计划是 SpaceX 推出的全球卫星互联网项目,通过发射低轨道卫星,为全球尤其是偏远地区提供高速、低延迟的互联网服务。自 2019 年起,Starlink 已部署数千颗卫星,旨在缩小全球数字鸿沟,推动互联网普及。该项目还为军事、航空等行业提供通信支持,带来广泛经济效益。
2D Orbit Map
3D Orbit Map
Orbit Altitude Analysis Chart
Orbit Inclination Analysis Chart
Orbit Comprehensive Analysis Chart
View Comprehensive Chart